Regional Weather Roundup
Issued by NWS Sioux Falls, SD

Home | Current Version | Previous Version | Text Only | Print | Product List | Glossary Off
Versions: 1 2 3 4 5 6 7 8 9 10 11 12 13 14 15 16 17 18 19 20 21 22 23 24 25 26 27 28 29 30 31 32 33 34 35 36 37 38 39 40 41 42 43 44 45 46 47 48 49 50

000
ASUS43 KFSD 281910
RWRFSD

WEATHER ROUNDUP FOR SE SOUTH DAKOTA/SW MINNESOTA/NW IOWA
NATIONAL WEATHER SERVICE SIOUX FALLS SD
200 PM CDT FRI AUG 28 2015

NOTE: "FAIR" INDICATES FEW OR NO CLOUDS BELOW 12,000 FEET WITH NO
SIGNIFICANT WEATHER AND OR OBSTRUCTIONS TO VISIBILITY.


SDZ038>040-050-052>070-282000-
SOUTHEAST SOUTH DAKOTA

CITY           SKY/WX    TMP DP  RH WIND       PRES   REMARKS
BROOKINGS      CLOUDY    70  61  73 SE14      29.99S
CHAMBERLAIN    CLOUDY    73  65  77 W3        29.99S
HURON          MOSUNNY   78  64  61 CALM      29.95F
MADISON        CLOUDY    68  66  94 E16       29.98R
MITCHELL       CLOUDY    77  66  68 NE8       29.97S
SIOUX FALLS    CLOUDY    70  62  76 E16       29.94S
WINNER         CLOUDY    75  63  66 NE5       30.01S
YANKTON        CLOUDY    72  63  73 NE13      29.91R
$$

MNZ071-072-080-081-089-090-097-098-282000-
SOUTHWEST MINNESOTA

CITY           SKY/WX    TMP DP  RH WIND       PRES   REMARKS
FAIRMONT       PTSUNNY   63  55  77 E20       29.98S
JACKSON        CLOUDY    64  63  94 E17G25    29.97S FOG
LUVERNE        CLOUDY    70  61  73 E15G23    29.95R
MARSHALL       PTSUNNY   73  59  60 SE18      29.98F
MONTEVIDEO     MOSUNNY   79  64  61 SW8       29.99F
PIPESTONE      CLOUDY    70  63  78 E13G18    29.97F
REDWOOD FALLS  PTSUNNY   75  62  64 SE18G25   29.97F
TRACY          CLOUDY    71  63  76 SE15G23   29.98F
WINDOM         CLOUDY    64  63  94 E14       29.97F FOG
WORTHINGTON    CLOUDY    66  59  77 E21G31    29.94F
$$

IAZ001>003-012>014-020>022-031-032-NEZ013-014-SDZ071-282000-
NORTHWEST IOWA

CITY           SKY/WX    TMP DP  RH WIND       PRES   REMARKS
CHEROKEE       CLOUDY    65  65 100 NE5       29.86S FOG
DENISON        CLOUDY    72  70  94 VRB6      29.81S
ESTHERVILLE    LGT RAIN  60  59  96 E17G26    29.95S FOG
LE MARS        CLOUDY    66  63  88 NE14G23   29.88R
ORANGE CITY    CLOUDY    64  61  88 E16G22    29.88F
SHELDON        CLOUDY    63  61  94 E20G26    29.89F FOG
SIOUX CITY     CLOUDY    70  64  81 N13       29.85R
SPENCER        CLOUDY    62  59  90 E18       29.92S FOG
STORM LAKE     FOG       64  64 100 E9G15     29.87S VSB 3/4
$$

ABBREVIATIONS USED IN REMARKS
   TC - TEMPERATURE IN CELSIUS
  WCI - WIND CHILL INDEX
   HX - HEAT INDEX
  VSB - VISIBILITY




USA.gov is the U.S. government's official web portal to all federal, state and local government web resources and services.